Regional Weather Roundup
Issued by NWS

Home | Current Version | Previous Version | Graphics & Text | Print | Product List | Glossary On
Versions: 1 2 3 4 5 6 7 8 9 10 11 12 13 14 15 16 17 18 19 20 21 22 23 24 25 26 27 28 29 30 31 32 33 34 35 36 37 38 39 40 41 42 43 44 45 46 47 48 49 50
703
ASUS45 KBOU 260110
RWRCO

WEATHER ROUNDUP FOR COLORADO
NATIONAL WEATHER SERVICE DENVER/BOULDER CO
700 PM MDT FRI MAY 25 2018

NOTE: "FAIR" INDICATES FEW OR NO CLOUDS BELOW 12000 FEET WITH NO
SIGNIFICANT WEATHER AND/OR OBSTRUCTIONS TO VISIBILITY.

COZ001>005-013-030-031-260200-
...NORTHWEST COLORADO...

CITY           SKY/WX    TMP DP  RH WIND       PRES   REMARKS
CRAIG          FAIR      80  31  16 SW10      30.01F
HAYDEN         FAIR      78  33  19 SE7       30.06F
MEEKER         FAIR      81  19  10 S9        30.02F
RANGELY        FAIR      87  10   5 SW12      29.93F
RABBIT EARS PA FAIR      61  23  23 W6        30.37F
STEAMBOAT SPGS FAIR      77  29  17 CALM      30.07F
WALDEN         FAIR      72  23  16 W9        30.19F
$$

COZ006>008-011-260200-
...WEST CENTRAL VALLEYS...

CITY           SKY/WX    TMP DP  RH WIND       PRES   REMARKS
GRAND JUNCTION FAIR      88  16   7 VRB3      29.91F
MONTROSE       FAIR      85   3   4 W13       29.99F
EAGLE          FAIR      83  17   8 W14       30.05F
RIFLE          FAIR      86   0   4 W18G26    29.96S
DELTA          FAIR      90  -1   3 W15G25    29.95F
NUCLA          FAIR      84   5   5 SW9G17    30.07F
$$

COZ017>023-064>068-260200-
...SOUTHWEST COLORADO...

CITY           SKY/WX    TMP DP  RH WIND       PRES   REMARKS
DURANGO        FAIR      80   4   5 CALM      30.11F
CORTEZ         FAIR      84  17   8 SW9       30.05F
PAGOSA SPRINGS FAIR      78 -15   2 W10       30.20S
TELLURIDE      FAIR      71   4   7 SE15      30.29F
WOLF CREEK PAS FAIR      54  10  17 SW10G23   30.55S
$$

COZ009-010-012-014-032>034-037-058>063-260200-
...CENTRAL COLORADO...

CITY           SKY/WX    TMP DP  RH WIND       PRES   REMARKS
ASPEN          FAIR      76  20  12 SW5       30.13F
BUENA VISTA    FAIR      76  10   8 SE9G16    30.14F
COPPER MTN     FAIR      61  10  13 MISG      30.50F
BERTHOUD PASS  FAIR      46  36  66 SE12      30.55S
COTTONWOOD PAS FAIR      73   3   6 SE17      30.30F
GUNNISON       FAIR      78  15   9 W9        30.13S
GRANBY         FAIR      74  20  13 W13       30.18F
KREMMLING      FAIR      82   7   5 SW6       30.12S
LEADVILLE      FAIR      68  16  13 N10G16    30.30F
MONARCH PASS   FAIR      61  14  16 MISG      30.58F
SALIDA         FAIR      81  11   7 SE8G16    30.17F
SUNLIGHT       FAIR      61  14  16 SW6       30.42S
WILKERSON PASS CLOUDY    59  10  14 SW8       30.46S
$$

COZ069>075-260200-
...SAN LUIS VALLEY/SANGRE DE CRISTO MOUNTAINS...

CITY           SKY/WX    TMP DP  RH WIND       PRES   REMARKS
ALAMOSA        FAIR      79  12   8 SW12      30.14F
DEL NORTE      FAIR      76  11   8 SW13G20   30.18F
LA VETA PASS   FAIR      64  16  15 MISG      30.47S
SAGUACHE       NOT AVBL
$$

COZ035-036-038>040-260200-
...NORTHERN COLORADO FRONT RANGE...

CITY           SKY/WX    TMP DP  RH WIND       PRES   REMARKS
DENVER INTL AP FAIR      84  34  16 E13       29.97F
AURORA         MOSUNNY   83  32  16 E13       29.99F
FRONT RANGE AP MOSUNNY   86  30  13 E10       29.99F
ERIE MUNI ARPT FAIR      86  28  12 E8        30.00S
BOULDER MUN AP FAIR      81  43  26 N3        29.97S
CENTENNIAL     FAIR      83  34  17 E15G24    30.00S
BROOMFIELD     MOSUNNY   84  30  14 NE6       30.00S
FORT COLLINS   FAIR      84  46  26 E7        29.97S
LONGMONT       FAIR      86  37  18 E5        29.97S
$$

COZ041-046-047-076>085-087-088-260200-
...PIKES PEAK/PALMER DIVIDE AND SOUTHERN FOOTHILLS...

CITY           SKY/WX    TMP DP  RH WIND       PRES   REMARKS
COLO. SPRINGS  FAIR      81  29  15 SE13      30.03S
A. F. ACADEMY  FAIR      78  25  14 SE10      30.05S
SCHRIEVER AFB  NOT AVBL
CHEYENNE MTN   PTSUNNY   77  24  13 S9        30.04F
ELLICOTT         N/A    N/A N/A N/A SE17      30.03S
FALCON         FAIR      78  25  13 SE10      30.10S
FORT CARSON    FAIR      85  28  13 SE16      29.99S
LIMON          FAIR      82  32  16 SE13      29.99F
MONUMENT HILL  FAIR      77  28  16 SE9G16    30.12S
CANON CITY     SUNNY     88  32  13 E17       29.95S
WALSENBURG     FAIR      84  27  12 SE14      30.00S
TRINIDAD       FAIR      85  26  11 SE9       30.00F
$$

COZ042>045-048>051-090-091-260200-
...NORTHEAST COLORADO...

CITY           SKY/WX    TMP DP  RH WIND       PRES   REMARKS
GREELEY ARPT   FAIR      83  37  19 E6        29.94F
AKRON          FAIR      82  48  30 E7        29.95F
BURLINGTON     FAIR      84  47  27 SE9       29.95S
WRAY           FAIR      88  41  19 E3        29.90S
YUMA           FAIR      84  36  17 E3        29.92F
STERLING       FAIR      84  48  28 SE5       29.90S
HOLYOKE        FAIR      88  45  22 CALM      29.91S
FORT MORGAN    FAIR      85  35  16 E6        29.94F
$$

COZ086-089-092>099-260200-
...SOUTHEAST COLORADO...

CITY           SKY/WX    TMP DP  RH WIND       PRES   REMARKS
PUEBLO         FAIR      90  36  14 SE18      29.90F
LA JUNTA       FAIR      90  40  17 MISG      29.91F
LAMAR          FAIR      90  40  17 SE12      29.88S
SPRINGFIELD      N/A     84  48  28 SE12      29.95S
$$




USA.gov is the U.S. government's official web portal to all federal, state and local government web resources and services.